Orbital Elements at Epoch 2459000.5 (2020-May-31.0) TDB
Reference: JPL 19 (heliocentric ecliptic J2000)
Element | Value | Uncertainty (1-sigma) | Units |
e | .2685140254981003 | 3.5433e-08 | |
a | 2.604211317563899 | 1.0501e-08 | au |
q | 1.904944053437105 | 8.9105e-08 | au |
i | 4.050905532791338 | 3.8392e-06 | deg |
node | 264.8595790767507 | 9.847e-05 | deg |
peri | 24.31848498145677 | 9.9101e-05 | deg |
M | 99.89426065220961 | 1.3104e-05 | deg |
tp | 2458574.557676203722 (2019-Apr-01.05767620) | 5.4924e-05 | TDB |
period | 1535.015481024718 4.20 | 9.2843e-06 2.542e-08 | d yr |
n | .2345253220245555 | 1.4185e-09 | deg/d |
Q | 3.303478581690694 | 1.332e-08 | au |
|
| | Orbit Determination Parameters
Additional Information
|